Location: Mactaquac Provincial Park
(45.9573°N, 66.8897°W)
Time: 13:00:02
(UTC-03:00)

CENTAUR R/B - Visible Passes

Search period start: 28 May 2016 00:00
Search period end: 07 June 2016 00:00
Orbit: 857 x 1332 km, 63.5° (Epoch: 04 May)

Date Brightness Start Highest point End Pass type
(mag) Time Alt. Az. Time Alt. Az. Time Alt. Az.
28 May 3.4 01:50:29 29° SE 01:51:55 32° ESE 01:57:46 10° NE visible
28 May 3.0 03:37:39 20° WSW 03:42:09 59° NW 03:49:10 10° NE visible
29 May 4.0 01:03:33 18° ESE 01:04:16 18° ESE 01:08:35 10° ENE visible
29 May 2.5 02:50:42 32° SW 02:53:50 88° NW 03:00:53 10° NE visible
29 May 4.2 04:39:55 10° W 04:45:32 29° NNW 04:51:45 10° NNE visible
30 May 2.7 02:03:42 41° S 02:05:44 59° ESE 02:12:31 10° NE visible
30 May 3.7 03:50:52 10° WSW 03:56:47 38° NW 04:03:27 10° NNE visible
31 May 3.2 01:16:40 33° SE 01:17:51 36° ESE 01:23:56 10° NE visible
31 May 3.1 03:03:49 20° WSW 03:08:14 54° NW 03:15:12 10° NE visible
31 May 4.7 04:55:26 10° WNW 05:00:39 23° NNW 05:06:19 10° NNE visible
01 Jun 3.8 00:29:35 21° ESE 00:30:09 21° ESE 00:34:56 10° ENE visible
01 Jun 2.6 02:16:44 32° SW 02:19:52 80° NW 02:26:56 10° NE visible
01 Jun 4.3 04:06:10 10° W 04:11:43 28° NNW 04:17:49 10° NNE visible
01 Jun 4.4 23:42:27 11° ESE 23:42:37 11° ESE 23:44:29 10° E visible
02 Jun 2.5 01:29:35 42° S 01:31:44 67° ESE 01:38:36 10° NE visible
02 Jun 3.9 03:17:04 10° W 03:22:56 36° NNW 03:29:29 10° NNE visible
03 Jun 3.0 00:42:23 36° SE 00:43:47 41° ESE 00:50:05 10° NE visible
03 Jun 3.3 02:29:31 17° WSW 02:34:19 49° NW 02:41:14 10° NE visible
03 Jun 4.8 04:21:43 10° WNW 04:26:51 22° NNW 04:32:26 10° NE visible
03 Jun 3.6 23:55:06 23° ESE 23:56:02 24° ESE 00:01:13 10° ENE visible
04 Jun 2.7 01:42:14 27° SW 01:45:55 73° NW 01:52:58 10° NE visible
04 Jun 4.5 03:32:26 10° WNW 03:37:54 26° NNW 03:43:54 10° NNE visible
04 Jun 4.2 23:07:45 13° ESE 23:08:28 13° ESE 23:11:23 10° ENE visible
05 Jun 2.5 00:54:52 35° SSW 00:57:43 74° SE 01:04:40 10° NE visible
05 Jun 4.1 02:43:17 10° W 02:49:05 33° NNW 02:55:33 10° NNE visible
05 Jun 5.0 04:37:14 10° NW 04:42:10 20° N 04:47:28 10° NE visible
06 Jun 2.9 00:07:24 32° SSE 00:09:44 46° ESE 00:16:12 10° NE visible
06 Jun 3.5 01:54:31 11° WSW 02:00:25 45° NW 02:07:16 10° NNE visible
06 Jun 4.9 03:48:00 10° WNW 03:53:05 21° NNW 03:58:35 10° NE visible
06 Jun 3.4 23:19:48 23° SE 23:21:56 27° ESE 23:27:27 10° NE visible
